Tracking 30692 objects as of 16-Jun-2025
HD Live streaming from Space Station
objects crossing your sky now

STARLINK-5035

Track STARLINK-5035 now!
10-day predictions
STARLINK-5035 is classified as:


NORAD ID: 53897
Int'l Code: 2022-119M
Perigee: 546.0 km
Apogee: 547.9 km
Inclination: 53.2 °
Period: 95.4 minutes
Semi major axis: 6917 km
RCS: Unknown
Launch date: September 24, 2022
Source: United States (US)
Launch site: AIR FORCE EASTERN TEST RANGE (AFETR)
Your satellite tracking list
Your tracking list is empty




NASA's NSSDC Master Catalog

Two Line Element Set (TLE):
1 53897U 22119M   25167.06667736 -.00000103  00000-0  11643-4 0  9993
2 53897  53.2184  81.0321 0001354 108.7113 251.4026 15.08829626151437
Source of the keplerian elements: AFSPC